Home   Weather   Alexandria   Past weeks

Flag for USA Past Weather in Alexandria, Virginia, USA — Yesterday and Last 2 Weeks

Now
55 °F

Overcast.


Feels Like: 52 °F
Forecast: 41 / 56 °F
Wind: 10 mph from South

Location: Reagan National Airport

Current Time: Feb 21, 2017 at 2:10:27 pm

Latest Report: Feb 21, 2017 at 12:52 pm


Visibility: 10 mi

Pressure: 30.26 "Hg

Humidity: 37%

Dew Point: 29 °F

Location of AlexandriaLocation

Past Weather in Alexandria — Graph

°F

Alexandria Temperature Yesterday

Maximum temperature yesterday: 68 °F (at 3:52 pm)
Minimum temperature yesterday: 44 °F (at 5:52 am)
Average temperature yesterday: 56 °F

High & Low Weather Summary for the Past Weeks

 TemperatureHumidityPressure
High73 °F (Feb 8, 11:52 am)93% (Feb 9, 4:14 am)30.44 "Hg (Feb 9, 4:14 am)
Low24 °F (Feb 10, 1:52 am)24% (Feb 20, 3:52 pm)29.45 "Hg (Feb 15, 12:52 pm)
Average46 °F54%29.92 "Hg
* Reported Feb 6 12:52 pm — Feb 21 12:52 pm, Alexandria, Weather by CustomWeather, © 2017

Note: Actual official high and low records may vary slightly from our data, if they occured in-between our weather recording intervals... More about our weather records

Advertising

Alexandria Weather History for the Previous 24 Hours

Scroll right to see more
 ConditionsComfort  
Time TempWeatherWind HumidityBarometerVisibility
12:52 pm
Tue, Feb 21
55 °FOvercast.10 mph37%30.26 "Hg10 mi
11:52 am53 °FOvercast.8 mph41%30.30 "Hg10 mi
10:52 am50 °FOvercast.8 mph46%30.32 "Hg10 mi
9:52 am47 °FOvercast.3 mph50%30.36 "Hg10 mi
8:52 am44 °FOvercast.5 mph53%30.36 "Hg10 mi
7:52 am42 °FPartly sunny.7 mph55%30.35 "Hg10 mi
6:52 am41 °FBroken clouds.6 mph58%30.35 "Hg10 mi
5:52 am42 °FPassing clouds.6 mph51%30.35 "Hg10 mi
4:52 am43 °FMostly cloudy.No wind47%30.35 "Hg10 mi
3:52 am45 °FMostly cloudy.6 mph45%30.34 "Hg10 mi
2:52 am46 °FPassing clouds.8 mph38%30.33 "Hg10 mi
1:52 am48 °FPassing clouds.8 mph39%30.32 "Hg10 mi
12:52 am50 °FPassing clouds.5 mph38%30.32 "Hg10 mi
11:52 pm
Mon, Feb 20
49 °FPassing clouds.No wind46%30.32 "Hg10 mi
10:52 pm50 °FPassing clouds.8 mph46%30.30 "Hg10 mi
9:52 pm50 °FPassing clouds.7 mph46%30.29 "Hg10 mi
8:52 pm53 °FPassing clouds.No wind47%30.28 "Hg10 mi
7:52 pm55 °FClear.6 mph47%30.25 "Hg10 mi
6:52 pm57 °FPassing clouds.7 mph42%30.25 "Hg10 mi
5:52 pm59 °FPassing clouds.9 mph39%30.22 "Hg10 mi
4:52 pm65 °FScattered clouds.10 mph27%30.21 "Hg10 mi
3:52 pm68 °FScattered clouds.9 mph24%30.19 "Hg10 mi
2:52 pm67 °FScattered clouds.5 mph29%30.19 "Hg10 mi
Weather by CustomWeather, © 2017

See weather overviewHow to use our weather pages